Regional Weather Roundup
Issued by NWS

Home | Current Version | Previous Version | Graphics & Text | Print | Product List | Glossary On
Versions: 1 2 3 4 5 6 7 8 9 10 11 12 13 14 15 16 17 18 19 20 21 22 23 24 25 26 27 28 29 30 31 32 33 34 35 36 37 38 39 40 41 42 43 44 45 46 47 48 49 50
000
ASUS43 KBIS 250502
RWRND

NORTH DAKOTA REGIONAL WEATHER ROUNDUP
NATIONAL WEATHER SERVICE BISMARCK ND
1200 AM CDT TUE APR 25 2017

NOTE: "FAIR" INDICATES FEW OR NO CLOUDS BELOW 12,000 FEET WITH NO
SIGNIFICANT WEATHER AND/OR OBSTRUCTIONS TO VISIBILITY.


NDZ001>003-009>011-017-250600-
NORTHWEST NORTH DAKOTA

CITY           SKY/WX    TMP DP  RH WIND       PRES   REMARKS
WILLISTON      CLOUDY    31  25  78 NE12      29.83R
MINOT          CLOUDY    32  28  85 N13       29.81R
MINOT AFB      CLOUDY    31  27  83 NE13      29.81R
$$

NDZ018>021-031>035-040>046-250600-
SOUTHWEST NORTH DAKOTA

CITY           SKY/WX    TMP DP  RH WIND       PRES   REMARKS
BISMARCK       CLOUDY    34  30  85 N10       29.74S
DICKINSON      CLOUDY    29  27  92 NE13      29.72S WCI  19
GARRISON         N/A     31  26  82 NE13      29.77S
HETTINGER ARPT CLOUDY    32  29  88 NE10      29.71R
$$

NDZ004>008-012>016-024-026-027-054-250600-
NORTHEAST NORTH DAKOTA

CITY           SKY/WX    TMP DP  RH WIND       PRES   REMARKS
GRAND FORKS    CLOUDY    34  32  92 N16       29.69R
GRND FRKS AFB  CLOUDY    32  30  95 N16G24    29.70R
DEVILS LAKE    CLOUDY    30  27  88 NE15G23   29.76R WCI  19
$$

NDZ022-023-025-028>030-036>039-047>053-250600-
SOUTHEAST NORTH DAKOTA

CITY           SKY/WX    TMP DP  RH WIND       PRES   REMARKS
FARGO          CLOUDY    36  35  96 N21       29.62R
JAMESTOWN      CLOUDY    32  31  96 N16       29.68S
$$





USA.gov is the U.S. government's official web portal to all federal, state and local government web resources and services.